Location: Byszew
(52.1813°N, 19.2693°E)
Time: 14:39:41
(UTC+00:00)

Cosmos 1727 Rocket - Pass Details

Date: 03 March 2021
Orbit: 961 x 996 km, 82.9° (Epoch: 13 April)

Event Time Altitude Azimuth Distance (km) Brightness Sun altitude
Rises 18:40:43 0° 350° (N) 3,660 7.4 -21.2°
Reaches altitude 10° 18:43:14 10° 351° (N) 2,710 6.6 -21.6°
Maximum altitude 18:49:27 81° 80° (E) 983 3.8 -22.5°
Enters shadow 18:52:57 28° 164° (SSE) 1,734 5.0 -23.0°
